Vertical_Velocity
-1 -1 0 -1 -1 53 -5 -0 0 1 0 -1 -0 2 3 -3 41 2 2 0 -0 1 2 -0 1 -0 0 -0 -0 1 2 0 -0 -1 -1 1 -1 -2 -1 -0 -2 -1 -3 -0 -0 -0 0 -0 -1
-0 -1 -0 -1 3 4 1 -3 -2 -1 1 -1 -1 -0 -1 1 -1 -0 -1 0 0 -0 1 -1 0 -1 0 -0 1 -1 -2 3 -3 -0 -6 -0 0 -0 1 -0 0 -1 -2 -1 -1 -1 -0 -0 1
1 0 -1 -1 -0 12 -6 0 -1 -1 -1 -2 0 -1 -0 1 -0 0 -1 2 -1 0 1 -0 -1 -4 -4 -0 -2 -0 2 3 3 -0 -2 6 3 -0 -5 2 0 -2 -2 -1 0 -1 -1 -1 -1
0 -0 -1 5 -3 -3 13 -1 1 -1 -1 -0 -0 0 -0 -0 -0 0 -1 0 0 0 0 -1 -2 3 -0 -1 -4 2 1 5 4 -1 -1 2 8 5 1 -1 0 4 -2 -0 0 -1 -3 -1 1
0 -0 8 -2 0 -1 -2 -2 -0 -0 -1 2 -4 8 2 -0 -0 -0 -3 1 -2 1 0 -2 1 1 7 -7 -1 0 5 1 2 8 -0 1 2 -1 4 2 -1 -2 -1 -0 -0 -1 3 3 -1
6 -1 2 -0 -0 2 0 -0 1 2 -1 0 1 -1 0 -1 -1 -2 -5 2 -0 0 0 -1 0 -3 -2 -2 -1 -0 2 1 -5 -1 5 6 5 1 -1 0 -1 -2 -2 -1 -0 -1 1 -1 -0
-1 -0 -2 -1 -2 0 -0 -1 -1 -1 -2 -5 -1 8 -9 -3 -3 -3 -4 1 0 -2 1 -1 -1 -0 -1 -1 -3 -2 6 -2 5 4 5 -1 -0 1 2 -1 -2 -1 -1 -2 -0 -1 2 -1 -2
-3 3 -4 -3 3 0 -1 -1 -0 -0 1 -0 -1 28 44 -9 -3 -3 -2 -1 2 -2 -1 0 -1 -1 2 1 1 -1 -2 -1 4 -1 -3 2 11 1 10 -1 -1 -2 -4 -3 -2 -4 -1 -2 -2
-5 -6 -6 -2 -0 -0 0 -0 -0 -0 -1 1 3 -4 -10 -6 -2 0 -1 -2 0 -0 0 -2 1 -1 1 15 1 0 3 1 -2 -0 2 2 2 -0 -6 -3 2 -5 -3 2 5 4 0 -3 -2
-2 -2 -1 -2 -0 0 3 0 1 -0 -2 1 -2 1 -2 -3 -1 -3 1 -1 -2 -2 -0 0 2 3 -1 2 0 -0 1 2 -2 10 0 2 0 1 0 1 -0 -6 -0 13 -0 8 8 -1 2
-1 -2 -1 -0 -1 -1 -1 -1 -1 -1 -3 -6 -5 -1 -0 -1 1 -0 -3 3 -2 -2 1 -2 1 1 -1 1 2 0 -3 -1 7 17 -1 1 3 2 -1 -3 -1 -4 5 2 -6 -4 14 1 -3
-1 -1 -1 -2 -1 -2 -2 -1 -2 -1 -4 -10 -6 -3 -1 -1 1 0 0 -2 1 -0 -1 -2 1 2 2 3 -0 -1 -4 -6 -2 3 -1 2 -1 2 -0 -1 -1 -4 0 7 6 18 8 -3 -3
-2 -1 -1 -1 -2 -2 -1 -0 -0 -1 1 1 -1 0 -1 -1 -0 -2 3 -1 -1 1 -1 -0 -2 2 0 -1 0 1 -2 -3 -1 -3 -1 -0 3 0 2 -1 -0 -4 -4 3 2 3 -2 -4 -4
-1 -2 -1 -2 -3 -2 -2 -1 -1 -1 -1 0 -0 -1 -0 0 -1 2 -2 -2 1 0 -0 -1 2 1 -0 1 -0 -0 1 -0 2 2 4 3 0 1 1 0 -1 -4 -3 -3 -1 -2 -4 -2 -1
-3 -2 -4 -1 -2 -2 -1 -8 -3 -0 -1 -1 -1 0 -0 0 0 1 0 -2 -1 -0 -0 -0 0 0 -1 -1 1 3 1 1 -0 3 1 1 4 0 0 1 -1 -1 -0 -3 -3 1 -2 -1 -2
-4 0 22 -5 -2 -0 1 -2 -1 -2 -1 -1 -0 1 -0 0 1 1 -2 -1 1 0 2 1 1 1 -1 -0 2 1 5 1 3 3 4 3 -0 0 -0 -1 -1 -1 -1 1 -0 -1 1 -2 -3
-2 6 -4 1 -2 0 -1 -0 -4 -2 -1 -4 1 2 1 1 1 1 -1 0 -0 3 1 2 -2 0 3 -1 1 2 1 -1 2 2 2 2 1 -1 1 -2 -1 0 -0 23 -1 -1 -1 -0 -2
10 -6 -4 -1 -4 1 -2 1 -2 -2 1 1 -1 -0 -1 2 0 -1 0 1 1 2 -1 -3 -2 -0 -1 2 4 2 1 1 1 0 3 2 -1 0 1 -1 1 -0 -0 0 -1 -0 -0 -2 -5
-1 -3 -3 -2 -3 -1 -1 -1 -0 -1 0 1 -2 -5 5 -0 1 -0 0 -0 -0 -0 -0 1 -1 -2 -1 0 -1 1 0 1 2 1 0 -1 3 -1 -1 -3 -1 -2 -1 -0 1 -1 -1 14 -1
-3 -9 17 -3 -2 2 6 3 2 -1 -3 -3 -0 5 -4 -1 1 -1 0 0 2 1 1 0 0 1 1 2 2 -1 0 1 -1 -4 9 7 -0 0 -2 -0 -2 -2 -0 -2 0 0 -2 -2 -2
-8 8 -2 -3 -1 1 -18 15 9 -2 -1 -0 -1 0 1 4 2 -1 1 0 1 -0 -2 0 1 -1 1 1 2 -1 -1 -0 -2 -1 -8 0 -0 -0 -2 -1 1 -3 -1 -3 0 -1 1 -2 -1
16 -7 -6 -3 1 36 -11 11 6 -7 -0 -1 -1 -1 1 4 0 -5 -1 0 1 0 -0 1 -1 0 2 0 -1 -0 1 2 3 -2 -0 -0 -1 1 0 0 -0 -1 1 -3 -2 -1 -0 -2 -2
-1 -5 -7 -7 -1 9 10 -21 54 -1 -5 -3 0 0 2 -0 -17 1 0 2 -0 -0 0 1 1 -0 1 -0 2 -1 0 -1 1 0 -1 2 1 2 -2 -1 -1 -0 1 -1 -1 -0 -1 -1 -1
-5 -4 -6 -7 -5 -11 4 8 23 3 -4 -2 -1 0 0 2 2 0 -7 0 -2 -1 -1 -1 -0 -1 -1 0 -1 1 2 1 -1 -2 -0 -1 -0 2 1 0 -1 -0 0 1 -1 0 0 -2 -1
-1 -8 4 10 53 1 -3 -7 -8 -2 -3 -1 -0 -1 -1 2 0 1 3 -2 1 -1 -1 1 0 1 -0 1 1 -1 -0 -1 -0 -1 0 -2 -2 -1 1 0 -1 -0 3 1 1 -2 1 -2 -2
3 -4 16 4 46 -16 0 -5 -6 -7 -4 -3 -1 -1 0 -1 -3 -1 3 1 -1 -0 2 0 -1 0 0 1 1 -1 1 -0 -0 3 0 1 0 0 2 1 1 0 0 0 1 -0 -1 -1 -2
0 -7 6 18 -10 26 -4 -10 -15 -4 -3 -3 -3 -1 -1 -1 -3 1 1 0 0 -0 -1 -1 0 1 1 0 1 1 0 -0 -1 -1 2 -1 -0 -1 -1 -0 -0 -0 1 1 3 -0 -0 3 0
-6 -9 9 4 -9 11 -8 17 -5 -3 -3 -5 -2 -1 -2 -0 -1 -1 -1 -1 -1 -1 -1 -1 -1 0 -1 -0 -1 -1 1 1 -0 0 1 0 -1 -1 1 -1 -1 -3 -1 0 2 -0 1 -1 0
-9 -12 -10 10 -5 4 22 -28 -12 2 -3 -2 -1 -3 -2 -3 -1 -1 -2 -2 -2 -3 -2 0 -0 -1 -1 0 0 1 1 1 1 -0 -1 0 -1 -0 -6 -2 -1 -0 -1 1 -1 -1 3 2 3
-11 -7 -3 19 14 1 -22 14 2 -2 1 -2 -3 -1 0 -2 -3 -2 -1 -2 -2 -2 -2 -2 -1 -1 -2 -1 -1 0 0 0 0 -1 -1 1 -0 -2 -1 1 5 4 -1 1 2 -0 0 -1 1
Height
5903 5904 5904 5905 5910 5900 5907 5908 5907 5907 5906 5906 5907 5907 5909 5908 5908 5909 5906 5905 5906 5906 5906 5907 5907 5908 5908 5907 5905 5905 5906 5905 5906 5906 5906 5905 5905 5904 5904 5904 5903 5902 5903 5903 5903 5903 5903 5903 5902
5904 5905 5906 5906 5905 5905 5908 5907 5907 5906 5905 5906 5906 5907 5907 5906 5906 5905 5905 5905 5904 5904 5905 5906 5906 5907 5907 5907 5906 5906 5906 5906 5905 5906 5905 5905 5904 5904 5904 5903 5904 5903 5903 5903 5904 5903 5903 5902 5901
5904 5905 5907 5907 5907 5906 5908 5906 5907 5906 5906 5905 5906 5905 5904 5905 5904 5904 5904 5904 5903 5903 5903 5905 5904 5905 5906 5905 5905 5905 5905 5905 5906 5905 5903 5903 5903 5904 5903 5905 5905 5903 5903 5903 5903 5903 5903 5901 5900
5905 5906 5907 5906 5907 5907 5907 5905 5907 5907 5906 5905 5905 5905 5903 5902 5902 5903 5902 5903 5903 5902 5902 5903 5904 5903 5903 5903 5903 5904 5905 5901 5904 5904 5903 5904 5905 5904 5905 5905 5905 5904 5904 5904 5903 5903 5902 5901 5899
5905 5906 5908 5907 5906 5906 5905 5905 5906 5906 5906 5906 5906 5903 5904 5901 5901 5902 5901 5902 5901 5901 5901 5901 5902 5902 5903 5903 5901 5902 5902 5900 5903 5904 5904 5904 5905 5904 5906 5905 5906 5905 5906 5905 5905 5904 5902 5901 5899
5904 5906 5908 5907 5906 5907 5906 5905 5905 5906 5906 5906 5906 5904 5904 5902 5901 5901 5900 5902 5900 5901 5901 5901 5902 5902 5903 5903 5903 5903 5902 5901 5902 5903 5903 5902 5904 5904 5905 5904 5906 5906 5906 5906 5905 5903 5902 5900 5899
5904 5905 5906 5906 5906 5906 5906 5905 5905 5905 5904 5904 5905 5905 5905 5903 5901 5900 5899 5900 5900 5899 5900 5901 5901 5901 5902 5902 5901 5901 5901 5900 5901 5901 5902 5903 5904 5905 5903 5905 5906 5906 5906 5906 5906 5902 5901 5900 5899
5904 5909 5907 5905 5906 5904 5905 5905 5905 5905 5905 5905 5904 5903 5891 5899 5901 5899 5899 5898 5899 5899 5900 5900 5900 5900 5899 5901 5900 5899 5902 5901 5901 5902 5901 5903 5903 5905 5905 5906 5906 5907 5906 5906 5906 5904 5903 5902 5900
5905 5904 5903 5903 5903 5903 5902 5903 5903 5904 5904 5904 5904 5903 5903 5901 5900 5899 5898 5897 5898 5898 5899 5899 5900 5901 5899 5894 5900 5899 5899 5900 5900 5901 5902 5903 5904 5904 5905 5906 5907 5908 5907 5907 5908 5907 5904 5903 5901
5903 5904 5902 5902 5902 5902 5902 5902 5902 5902 5901 5902 5902 5901 5900 5899 5899 5897 5897 5896 5896 5897 5897 5897 5898 5899 5899 5899 5899 5900 5898 5898 5899 5900 5901 5902 5903 5904 5906 5907 5907 5909 5910 5909 5906 5906 5908 5905 5903
5902 5902 5902 5902 5901 5901 5901 5902 5901 5901 5900 5900 5900 5900 5899 5898 5898 5896 5895 5896 5895 5895 5897 5897 5897 5898 5899 5900 5899 5898 5898 5896 5898 5899 5901 5900 5901 5903 5906 5906 5907 5909 5911 5905 5899 5908 5908 5907 5904
5902 5902 5902 5903 5902 5902 5901 5901 5900 5899 5898 5899 5897 5897 5896 5896 5896 5896 5896 5894 5895 5894 5895 5896 5896 5897 5898 5899 5899 5898 5896 5896 5897 5897 5899 5900 5902 5903 5905 5906 5908 5909 5912 5908 5908 5906 5910 5908 5906
5901 5902 5902 5902 5902 5902 5901 5900 5899 5897 5896 5895 5895 5895 5894 5894 5894 5893 5894 5892 5893 5893 5894 5894 5895 5896 5897 5897 5897 5897 5897 5896 5896 5897 5897 5898 5900 5902 5904 5906 5907 5908 5910 5910 5911 5912 5912 5910 5908
5901 5902 5903 5903 5902 5902 5901 5900 5898 5896 5894 5893 5892 5892 5892 5892 5891 5892 5891 5891 5892 5892 5892 5893 5894 5895 5897 5897 5896 5896 5896 5896 5895 5895 5896 5898 5900 5902 5903 5905 5907 5908 5909 5909 5912 5913 5913 5912 5911
5901 5903 5905 5904 5902 5902 5901 5899 5897 5895 5893 5890 5890 5890 5890 5890 5890 5890 5890 5889 5890 5890 5891 5892 5894 5894 5895 5895 5895 5895 5894 5894 5893 5894 5895 5897 5899 5901 5903 5905 5907 5908 5909 5910 5911 5914 5914 5914 5913
5903 5905 5909 5905 5903 5903 5902 5901 5897 5894 5891 5889 5887 5887 5887 5887 5888 5888 5888 5888 5889 5890 5891 5892 5892 5893 5894 5894 5894 5894 5893 5892 5892 5892 5894 5896 5899 5900 5903 5905 5907 5909 5908 5911 5912 5913 5914 5914 5914
5905 5902 5906 5907 5904 5903 5902 5900 5897 5894 5891 5887 5886 5884 5883 5884 5886 5887 5887 5888 5888 5889 5890 5891 5890 5890 5893 5893 5893 5893 5892 5890 5891 5892 5894 5896 5898 5900 5903 5904 5907 5908 5909 5918 5913 5913 5914 5915 5916
5902 5907 5907 5907 5905 5903 5902 5902 5897 5894 5891 5888 5884 5882 5882 5883 5885 5886 5887 5887 5887 5888 5888 5888 5889 5889 5890 5892 5892 5892 5890 5890 5891 5892 5895 5896 5898 5900 5902 5904 5906 5908 5909 5911 5913 5914 5914 5915 5917
5903 5904 5907 5906 5904 5903 5902 5901 5898 5894 5891 5888 5883 5881 5882 5883 5885 5885 5886 5887 5887 5888 5888 5889 5889 5890 5890 5891 5891 5891 5890 5891 5891 5893 5894 5895 5898 5901 5904 5905 5906 5908 5909 5911 5913 5915 5916 5918 5917
5902 5905 5909 5907 5904 5905 5903 5901 5898 5895 5892 5888 5885 5883 5882 5883 5884 5886 5886 5887 5888 5888 5887 5887 5888 5888 5889 5890 5891 5891 5891 5892 5893 5894 5893 5896 5899 5901 5903 5906 5907 5908 5909 5911 5913 5914 5915 5915 5917
5903 5907 5906 5904 5904 5904 5898 5898 5898 5897 5893 5890 5887 5885 5884 5886 5885 5885 5887 5887 5887 5887 5887 5887 5887 5887 5888 5889 5890 5891 5893 5893 5893 5894 5894 5896 5899 5901 5904 5905 5906 5908 5910 5912 5912 5912 5915 5915 5916
5907 5903 5901 5901 5903 5906 5903 5893 5897 5898 5896 5893 5890 5888 5886 5884 5885 5885 5886 5886 5887 5888 5888 5887 5887 5887 5888 5888 5890 5892 5893 5893 5895 5895 5896 5897 5899 5902 5904 5905 5906 5907 5910 5912 5912 5913 5913 5914 5916
5902 5901 5900 5901 5903 5904 5908 5896 5896 5899 5898 5896 5893 5891 5889 5888 5886 5886 5887 5887 5887 5887 5887 5887 5887 5887 5888 5888 5889 5891 5892 5893 5894 5895 5896 5898 5900 5902 5904 5905 5906 5907 5909 5911 5913 5913 5914 5915 5917
5897 5901 5902 5902 5905 5903 5909 5902 5895 5898 5899 5898 5896 5894 5892 5891 5889 5888 5887 5888 5887 5887 5886 5887 5887 5887 5887 5888 5889 5889 5891 5892 5893 5894 5895 5896 5898 5901 5903 5905 5906 5908 5909 5910 5911 5913 5915 5915 5916
5899 5902 5906 5910 5911 5906 5907 5905 5899 5900 5898 5898 5897 5895 5894 5892 5890 5889 5889 5888 5885 5886 5886 5886 5886 5886 5887 5888 5888 5888 5889 5890 5891 5892 5895 5896 5897 5898 5900 5902 5905 5907 5908 5909 5910 5913 5914 5914 5915
5902 5904 5908 5911 5911 5907 5907 5900 5899 5899 5897 5896 5896 5895 5894 5892 5891 5890 5889 5887 5887 5887 5886 5886 5886 5886 5885 5886 5887 5888 5888 5889 5890 5891 5892 5893 5895 5896 5897 5899 5902 5904 5907 5907 5909 5910 5912 5913 5913
5902 5903 5906 5909 5909 5911 5904 5902 5898 5896 5896 5895 5894 5894 5894 5892 5891 5890 5889 5888 5887 5887 5886 5885 5885 5884 5885 5885 5886 5886 5886 5886 5887 5888 5890 5891 5893 5894 5895 5896 5899 5901 5904 5905 5906 5907 5910 5911 5912
5896 5898 5905 5908 5907 5909 5906 5904 5897 5896 5895 5894 5893 5892 5892 5891 5891 5890 5889 5888 5887 5886 5885 5885 5885 5884 5884 5884 5884 5884 5884 5884 5884 5885 5886 5887 5890 5891 5894 5894 5896 5898 5901 5902 5903 5905 5907 5909 5911
5898 5900 5902 5905 5905 5906 5907 5895 5893 5895 5894 5892 5891 5890 5889 5889 5888 5888 5888 5887 5886 5885 5885 5884 5884 5883 5882 5882 5882 5882 5882 5882 5882 5882 5883 5884 5886 5888 5889 5891 5893 5895 5898 5899 5901 5903 5904 5907 5909
5893 5896 5899 5904 5902 5902 5902 5898 5895 5893 5893 5890 5889 5888 5887 5886 5885 5884 5884 5884 5884 5883 5883 5882 5881 5880 5879 5879 5879 5880 5879 5879 5879 5879 5880 5880 5881 5883 5885 5887 5889 5891 5893 5894 5896 5900 5902 5903 5906